Weather Roundup
Issued by NWS

Home | Current Version | Previous Version | Graphics & Text | Print | Product List | Glossary Off
Versions: 1 2 3 4 5 6 7 8 9 10 11 12 13 14 15 16 17 18 19 20 21 22 23 24 25 26 27 28 29 30 31 32 33 34 35 36 37 38 39 40 41 42 43 44 45 46 47 48 49 50

000
NZUS93 KARX 250959
HRRWXR

CURRENT HOURLY OBSERVATIONS ACROSS
MUCH OF THE UPPER MISSISSIPPI VALLEY
NATIONAL WEATHER SERVICE LA CROSSE WI
500 AM CDT TUE APR 25 2017


...SOUTHEAST MINNESOTA...


CITY           SKY/WX    TMP DP  RH WIND       PRES   REMARKS
ROCHESTER      CLOUDY    57  35  43 S12       29.54S
ROCHESTER/MAYO CLOUDY    59  33  38 SE10      29.54R
WINONA         CLOUDY    61  32  33 S8        29.55S
AUSTIN         CLOUDY    55  34  44 S7        29.53R
ALBERT LEA     MOCLDY    55  36  47 S6        29.51S
DODGE CENTER   CLOUDY    55  36  47 S10       29.52S
PRESTON        CLOUDY    55  32  41 S7        29.56R
OWATONNA       CLOUDY    57  34  41 SE12G21   29.50S
FARIBAULT      CLOUDY    61  36  39 S8        29.50S
$$

...ELSEWHERE IN MINNESOTA...


CITY           SKY/WX    TMP DP  RH WIND       PRES   REMARKS
MINNEAPOLIS    CLOUDY    60  36  40 SE7       29.49S
INTNL FALLS    LGT RAIN  35  33  92 NE9       29.64S FOG     WCI  28
DULUTH         CLOUDY    40  37  89 E6        29.57F
RED WING       CLOUDY    61  30  31 SE8       29.51S
REDWOOD FALLS  CLOUDY    40  37  89 NW8G18    29.54R WCI  34
MANKATO        MOCLDY    47  44  90 NW12      29.52R
WORTHINGTON    CLOUDY    41  39  93 N15       29.55R
FAIRMONT       CLOUDY    45  43  93 NW15      29.53R
$$

...SOUTHWEST WISCONSIN...


CITY           SKY/WX    TMP DP  RH WIND       PRES   REMARKS
LA CROSSE      CLOUDY    60  32  34 SE10      29.57F
PRAIRIE DU CHI PTCLDY    53  32  44 E3        29.59F
BOSCOBEL       MOCLDY    56  35  45 VRB3      29.61F
LONE ROCK      NOT AVBL
PLATTEVILLE    CLOUDY    51  38  61 E9        29.62F
FORT MC COY    CLOUDY    59  33  38 S10       29.60F
MAUSTON-NEW LI CLOUDY    53  36  53 SE5       29.62F
VIROQUA        FAIR      53  33  46 SE8       29.61S
WIS DELLS      CLOUDY    55  35  46 S3        29.64F
$$

...ELSEWHERE IN WISCONSIN...


CITY           SKY/WX    TMP DP  RH WIND       PRES   REMARKS
MILWAUKEE      PTCLDY    51  40  65 SE10      29.71F
MADISON        CLOUDY    56  37  49 S10       29.66F
GREEN BAY      CLOUDY    52  38  58 SE10      29.71F
EAU CLAIRE     NOT AVBL
BLACK RVR FLS  FAIR      44  33  64 CALM      29.59F
MEDFORD        CLOUDY    53  34  47 SE9       29.62S
WAUSAU         CLOUDY    50  34  54 E8        29.64F
WIS RAPIDS     MOCLDY    56  35  45 SE8       29.64F
MARSHFIELD     MOCLDY    55  33  43 SE9       29.62S
RICE LAKE      CLOUDY    59  32  36 SE14      29.56S
$$

...NORTHEAST IOWA...


CITY           SKY/WX    TMP DP  RH WIND       PRES   REMARKS
WATERLOO       CLOUDY    57  35  43 S8        29.55R
DUBUQUE        CLEAR     53  33  46 SE14      29.61F
DECORAH        CLOUDY    54  34  47 SE8       29.56S
MASON CITY     CLEAR     49  36  61 S6        29.53S
CHARLES CITY   CLOUDY    57  34  41 SE10      29.55S
OELWEIN        CLOUDY    52  37  58 SE8       29.57S
$$

...ELSEWHERE IN IOWA...


CITY           SKY/WX    TMP DP  RH WIND       PRES   REMARKS
DES MOINES     PTCLDY    57  39  51 SE8       29.52F
IOWA CITY      CLEAR     54  36  50 CALM      29.60S
FORT DODGE     CLEAR     55  37  50 SE5       29.51F
MARSHALLTOWN   PTCLDY    54  36  50 SE10      29.53S
CEDAR RAPIDS   CLEAR     54  37  52 S9        29.57S
$$

...NORTHERN ILLINOIS...


CITY           SKY/WX    TMP DP  RH WIND       PRES   REMARKS
CHICAGO-OHARE  CLOUDY    55  46  71 SE10      29.70F
CHICAGO-MIDWAY PTCLDY    58  48  69 SE10      29.71F
MOLINE         PTCLDY    54  34  46 S10       29.62S
ROCKFORD       PTCLDY    54  40  59 SE9       29.70R
PEORIA         CLOUDY    55  36  48 SE5       29.67F
$$

NOTE: "FAIR" INDICATES FEW OR NO CLOUDS BELOW 12,000 FEET WITH NO
SIGNIFICANT WEATHER AND/OR OBSTRUCTIONS TO VISIBILITY. WIND
SPEEDS ARE IN MILES-PER-HOUR.




USA.gov is the U.S. government's official web portal to all federal, state and local government web resources and services.